"TOA5","AWS1","CR1000","7964","CR1000.Std.14","CPU:AWS1_114.CR1","64363","TBL110"
"TIMESTAMP","RECORD","Wind_spd_WVc(1)","Wind_spd_WVc(2)","Air_Temp_Avg","Humidity_Avg","SW_upper_Wm2_Avg","Rain_Tot","Press_Avg","Issui_Tot","Depth_cm","SR50A_Raw","Quality","Ground_Temp_Avg(1)","Ground_Temp_Avg(2)","SW_lower_Wm2_Avg","Albedo_Avg","SWC_per(1)","SWC_per(2)","Period(1)","Period(2)"
"TS","RN","","","","","","","","","","","","","","","","","","",""
"","","WVc","WVc","Avg","Avg","Avg","Tot","Avg","Tot","Smp","Smp","Smp","Avg","Avg","Avg","Avg","Smp","Smp","Smp","Smp"
"2017-02-13 00:00:00",274957,0.123,11.11,-11.21,85.3,0,0,865.1316,0,116.3,2.057,195,1.216,1.908,0.01518255,0,52.44,60.38,33.89,35.77
"2017-02-13 00:10:00",274958,0.218,1.188,-10.16,80.4,0,0,864.9818,0,116.2,2.053,193,1.224,1.917,0.6452693,0,52.49,60.33,33.91,35.75
"2017-02-13 00:20:00",274959,0.214,347.1,-9.34,74.04,0,0,864.9059,0,116.3,2.051,193,1.229,1.921,1.032448,0,52.44,60.38,33.89,35.77
"2017-02-13 00:30:00",274960,0.079,354.5,-9.48,74.04,0,0,864.9228,0,116.1,2.058,193,1.234,1.926,0.4403154,0,52.44,60.38,33.89,35.77
"2017-02-13 00:40:00",274961,0.097,350.9,-10.22,78.62,0,0,864.9502,0,116,2.059,192,1.24,1.931,0,0,52.44,60.38,33.89,35.77
"2017-02-13 00:50:00",274962,0.079,358.8,-9.97,77.73,0,0,864.8173,0,115.7,2.06,186,1.244,1.928,0.079716,0,52.44,60.38,33.89,35.77
"2017-02-13 01:00:00",274963,0.142,349.6,-9.88,77.27,0,0,864.7473,0,115.8,2.06,180,1.246,1.935,0.1860044,0,52.44,60.38,33.89,35.77
"2017-02-13 01:10:00",274964,0.175,13.34,-9.92,76.78,0,0,864.7421,0,115.9,2.058,181,1.246,1.931,0.1442487,0,52.44,60.38,33.89,35.77
"2017-02-13 01:20:00",274965,0.243,3.989,-9.66,74.2,0,0,864.7488,0,115.7,2.06,185,1.243,1.908,0.565607,0,52.44,60.38,33.89,35.77
"2017-02-13 01:30:00",274966,0.087,350.5,-9.55,73.18,0,0,864.7471,0,115.9,2.058,176,1.228,1.896,0.2619254,0,52.44,60.33,33.89,35.75
"2017-02-13 01:40:00",274967,0.234,3.288,-9.55,73.46,0,0,864.7489,0,115.3,2.061,171,1.229,1.903,0.5048707,0,52.49,60.33,33.91,35.75
"2017-02-13 01:50:00",274968,0.088,8.03,-8.93,70.15,0,0,864.7498,0,115.4,2.059,176,1.233,1.891,0.7250398,0,52.49,60.33,33.91,35.75
"2017-02-13 02:00:00",274969,0.124,4.202,-9.14,72.49,0,0,864.7585,0,115.9,2.055,185,1.238,1.901,0.02657214,0,52.49,60.33,33.91,35.75
"2017-02-13 02:10:00",274970,0.355,340.9,-8.18,67.54,0,0,864.7589,0,115.4,2.058,188,1.225,1.889,0.7819802,0,52.49,60.33,33.91,35.75
"2017-02-13 02:20:00",274971,0.11,349,-8.92,71.52,0,0,864.7474,0,115.6,2.06,176,1.229,1.886,0.0759204,0,52.44,60.33,33.89,35.75
"2017-02-13 02:30:00",274972,0.085,13.69,-9.68,76.15,0,0,864.8041,0,115.4,2.064,194,1.225,1.883,0,0,52.49,60.38,33.91,35.77
"2017-02-13 02:40:00",274973,0.01,12.77,-10.13,78.64,0,0,864.9752,0,115.3,2.067,176,1.215,1.895,0,0,52.44,60.33,33.89,35.75
"2017-02-13 02:50:00",274974,0,0,-10.96,81.5,0,0,864.9913,0,115.6,2.066,176,1.183,1.91,0,0,52.49,60.33,33.91,35.75
"2017-02-13 03:00:00",274975,0.076,9.23,-10.36,81.1,0,0,864.9464,0,115.9,2.059,179,1.197,1.917,0.2884975,0,52.44,60.33,33.89,35.75
"2017-02-13 03:10:00",274976,0.005,4.223,-10.14,78.72,0,0,864.7775,0,115.4,2.066,176,1.197,1.919,0.4289503,0,52.44,60.33,33.89,35.75
"2017-02-13 03:20:00",274977,0.106,10.75,-9.92,78.96,0,0,864.8558,0,115.4,2.062,179,1.202,1.912,0.4896866,0,52.44,60.33,33.89,35.75
"2017-02-13 03:30:00",274978,0.198,10.18,-9.41,75.4,0,0,865.0067,0,115.1,2.067,171,1.207,1.885,1.146398,0,52.44,60.33,33.89,35.75
"2017-02-13 03:40:00",274979,0.117,14.16,-9.92,77.04,0,0,865.0129,0,114.9,2.072,180,1.211,1.878,0.4555224,0,52.44,60.33,33.89,35.75
"2017-02-13 03:50:00",274980,0.129,14.38,-10.67,81.9,0,0,865.0111,0,115.8,2.06,183,1.219,1.869,0.2163731,0,52.44,60.33,33.89,35.75
"2017-02-13 04:00:00",274981,0.086,7.786,-10.11,79.16,0,0,865.0178,0,115.3,2.066,180,1.216,1.854,0.5162587,0,52.44,60.33,33.89,35.75
"2017-02-13 04:10:00",274982,0.188,358.4,-9.71,79.6,0,0,865.1677,0,115.2,2.065,193,1.208,1.852,0.6794875,0,52.44,60.33,33.89,35.75
"2017-02-13 04:20:00",274983,0.08,4.36,-10.81,80.9,0,0,865.3122,0,115.7,2.064,184,1.218,1.855,0.06832836,0,52.38,60.33,33.88,35.75
"2017-02-13 04:30:00",274984,0.251,14.12,-10.41,84.1,0,0,865.3154,0,115.5,2.064,188,1.218,1.857,0.4403383,0,52.44,60.33,33.89,35.75
"2017-02-13 04:40:00",274985,0.042,19.78,-10.34,83,0,0,865.3263,0,115.2,2.069,193,1.217,1.859,0.2922935,0,52.44,60.33,33.89,35.75
"2017-02-13 04:50:00",274986,0.066,14.77,-10.1,84.5,0,0,865.33,0,115,2.067,179,1.221,1.854,0.2581294,0,52.44,60.33,33.89,35.75
"2017-02-13 05:00:00",274987,0.171,24.1,-9.69,81.4,0,0,865.3336,0,115.1,2.067,179,1.21,1.853,0.6643035,0,52.44,60.33,33.89,35.75
"2017-02-13 05:10:00",274988,0.157,351.6,-9.49,80.7,0,0,865.3344,0,115.1,2.064,180,1.206,1.854,0.4707065,0,52.44,60.33,33.89,35.75
"2017-02-13 05:20:00",274989,0.148,15.1,-8.88,76.26,0,0,865.3347,0,114.7,2.066,175,1.21,1.862,0.9565986,0,52.38,60.33,33.88,35.75
"2017-02-13 05:30:00",274990,0.135,354.8,-8.61,73.81,0,0,865.3347,0.5,114.8,2.064,179,1.212,1.875,0.330264,0,52.44,60.33,33.89,35.75
"2017-02-13 05:40:00",274991,0.071,350.6,-8.71,73.85,0,0,865.4612,0,114.5,2.071,191,1.212,1.879,0.204994,0,52.44,60.33,33.89,35.75
"2017-02-13 05:50:00",274992,0.026,354.5,-9.15,78.06,0,0,865.59,0,115,2.062,192,1.212,1.88,0.1328644,0,52.44,60.33,33.89,35.75
"2017-02-13 06:00:00",274993,0.001,15.2,-9.04,76,0,0,865.6024,0,114.7,2.071,191,1.2,1.88,0.2922997,0,52.38,60.33,33.88,35.75
"2017-02-13 06:10:00",274994,0.08,0.608,-9.32,78.94,0,0,865.7526,0,114.7,2.067,192,1.188,1.878,0.5352415,0,52.38,60.33,33.88,35.75
"2017-02-13 06:20:00",274995,0.142,5.597,-9.09,78.59,0,0,865.8307,0,114.8,2.066,192,1.173,1.869,0.4175633,0,52.44,60.33,33.89,35.75
"2017-02-13 06:30:00",274996,0.077,17.07,-9.03,75.75,0,0,865.8342,0,114.5,2.069,192,1.162,1.884,0.7933691,0,52.44,60.33,33.89,35.75
"2017-02-13 06:40:00",274997,0.122,354.8,-8.91,72.67,0,0,865.8289,0,114.7,2.066,191,1.162,1.877,1.423509,0,52.44,60.33,33.89,35.75
"2017-02-13 06:50:00",274998,0.236,359.6,-8.48,70.84,0,0,865.9947,0,113.8,2.074,191,1.161,1.896,3.777043,0,52.44,60.33,33.89,35.75
"2017-02-13 07:00:00",274999,0.199,3.337,-9.08,74.2,0.7165352,0,866.2179,0,114.4,2.072,192,1.164,1.891,5.07908,6.473,52.44,60.33,33.89,35.75
"2017-02-13 07:10:00",275000,0.023,15.72,-9.48,76.54,2.01181,0,866.276,0,114.3,2.075,192,1.165,1.89,7.626211,3.856,52.44,60.33,33.89,35.75
"2017-02-13 07:20:00",275001,0.047,4.365,-9.75,78.82,4.094487,0,866.2767,0,114.5,2.071,192,1.167,1.882,14.06047,3.381,52.38,60.33,33.88,35.75
"2017-02-13 07:30:00",275002,0.067,2.031,-8.94,75.44,5.988187,0,866.4613,0,114.1,2.073,190,1.191,1.889,24.93608,4.174,52.44,60.33,33.89,35.75
"2017-02-13 07:40:00",275003,0.188,345.7,-8.77,75.13,8.236217,0,866.5325,0,114,2.073,190,1.211,1.867,29.4002,3.586,52.44,60.33,33.89,35.75
"2017-02-13 07:50:00",275004,0.24,11.23,-8.9,76.81,13.31102,0,866.586,0,114.4,2.07,191,1.238,1.88,36.91253,2.771,52.44,60.33,33.89,35.75
"2017-02-13 08:00:00",275005,0.231,6.679,-8.1,77.15,20.9055,0,866.6361,0,114.1,2.068,190,1.247,1.928,68.29046,3.255,52.44,60.33,33.89,35.75
"2017-02-13 08:10:00",275006,0.207,19.2,-7.798,78,23.87794,0,866.7145,0,114.1,2.068,190,1.246,1.939,76.31145,3.197,52.44,60.33,33.89,35.75
"2017-02-13 08:20:00",275007,0.199,9.4,-7.416,78.33,24.5118,0,866.7706,0,114.1,2.067,186,1.223,1.939,72.29527,2.954,52.49,60.33,33.91,35.75
"2017-02-13 08:30:00",275008,0.065,4.965,-7.184,79.15,25.88582,0,866.8026,0,114,2.067,192,1.197,1.916,75.13848,2.912,52.44,60.33,33.89,35.75
"2017-02-13 08:40:00",275009,0.024,16.44,-6.901,78.02,26.22817,0,866.7811,0,114.1,2.065,185,1.161,1.884,78.43673,2.991,52.49,60.33,33.91,35.75
"2017-02-13 08:50:00",275010,0.19,357.8,-6.582,76.26,37.08485,0,866.9967,0,113.9,2.066,187,1.165,1.843,110.1174,2.959,52.49,60.33,33.91,35.75
"2017-02-13 09:00:00",275011,0.103,350.7,-6.397,76.21,39.93453,0,867.0153,0,113.9,2.066,170,1.251,1.852,120.1819,3.012,52.44,60.33,33.89,35.75
"2017-02-13 09:10:00",275012,0.286,352.7,-6.512,78.83,42.66187,0,867.0911,0,114.1,2.063,183,1.219,1.888,126.1197,2.958,52.44,60.33,33.89,35.75
"2017-02-13 09:20:00",275013,0.205,352.4,-6.355,79.7,35.70127,0,867.2514,0,113.9,2.066,178,1.175,1.901,104.5359,2.935,52.44,60.33,33.89,35.75
"2017-02-13 09:30:00",275014,0.395,348.8,-6.426,82.1,52.72251,0,867.3885,0,113.8,2.066,191,1.162,1.884,149.593,2.832,52.44,60.33,33.89,35.75
"2017-02-13 09:40:00",275015,0.3,351.2,-6.263,84.1,48.79048,0,867.5151,0,114,2.064,170,1.139,1.855,141.813,2.899,52.44,60.27,33.89,35.74
"2017-02-13 09:50:00",275016,0.448,343.7,-6.152,84.2,47.71878,0,867.5187,0,114,2.062,174,1.166,1.848,134.5996,2.818,52.44,60.33,33.89,35.75
"2017-02-13 10:00:00",275017,0.25,1.371,-5.74,81.1,53.6661,0,867.4808,0,114.4,2.058,178,1.186,1.843,150.5966,2.806,52.44,60.33,33.89,35.75
"2017-02-13 10:10:00",275018,0.169,20.47,-5.472,81.6,50.88624,0,867.4395,0,114.5,2.055,190,1.197,1.83,148.3491,2.918,52.44,60.33,33.89,35.75
"2017-02-13 10:20:00",275019,0.19,15.12,-5.095,80.9,54.6293,0,867.4318,0,114.7,2.052,192,1.186,1.832,165.1092,3.016,52.44,60.33,33.89,35.75
"2017-02-13 10:30:00",275020,0.254,28.18,-4.846,78.47,62.5364,0,867.4299,0,114.4,2.053,190,1.159,1.878,191.4747,3.057,52.38,60.33,33.88,35.75
"2017-02-13 10:40:00",275021,0.221,345.4,-4.564,76.42,52.41307,0,867.4316,0,114.2,2.057,191,1.158,1.857,158.3798,2.997,52.38,60.33,33.88,35.75
"2017-02-13 10:50:00",275022,0.465,353.4,-4.896,77.02,66.28538,0,867.4926,0,113.9,2.059,192,1.157,1.853,198.4571,2.981,52.44,60.33,33.89,35.75
"2017-02-13 11:00:00",275023,0.514,357.8,-5.029,80.2,53.75825,0,867.5366,0,114.3,2.056,191,1.156,1.864,153.6142,2.847,52.44,60.33,33.89,35.75
"2017-02-13 11:10:00",275024,0.637,1.772,-5.326,84.8,37.63097,0,867.5596,0,114.1,2.06,193,1.151,1.879,101.0739,2.676,52.44,60.33,33.89,35.75
"2017-02-13 11:20:00",275025,0.253,353.2,-5.571,87.2,46.23206,0,867.6242,0,113.9,2.062,187,1.134,1.89,128.3964,2.777,52.44,60.33,33.89,35.75
"2017-02-13 11:30:00",275026,0.955,337.1,-5.617,84.6,56.68229,0,867.5988,0,113.3,2.068,182,1.107,1.871,162.7058,2.864,52.44,60.33,33.89,35.75
"2017-02-13 11:40:00",275027,0.502,355.5,-5.239,83.6,68.97288,0,867.5925,0,113,2.07,188,1.087,1.851,212.7974,3.065,52.44,60.33,33.89,35.75
"2017-02-13 11:50:00",275028,0.629,9.16,-5.339,84.2,59.32611,0,867.5909,0,113.2,2.067,174,1.088,1.834,172.8564,2.902,52.44,60.33,33.89,35.75
"2017-02-13 12:00:00",275029,0.249,3.238,-4.858,80.6,70.36916,0,867.4345,0,113,2.069,174,1.109,1.83,221.3596,3.103,52.44,60.33,33.89,35.75
"2017-02-13 12:10:00",275030,0.359,4.499,-5.084,76.92,74.69511,0,867.3607,0,113,2.069,178,1.112,1.809,221.5102,2.938,52.38,60.33,33.88,35.75
"2017-02-13 12:20:00",275031,0.149,9.96,-4.428,73.38,88.22839,0,867.2153,0,113,2.066,192,1.112,1.803,297.6598,3.288,52.44,60.33,33.89,35.75
"2017-02-13 12:30:00",275032,0.4,347.3,-4.407,70.62,95.03635,0,867.0847,0,112.8,2.069,186,1.102,1.803,302.9839,3.154,52.44,60.33,33.89,35.75
"2017-02-13 12:40:00",275033,0.3,9.75,-4.33,71.01,88.53908,0,867.0024,0,112.7,2.068,186,1.123,1.8,279.8481,3.13,52.44,60.33,33.89,35.75
"2017-02-13 12:50:00",275034,0.127,357.8,-3.725,71.16,84.75422,0,866.8612,0,112.9,2.065,187,1.107,1.764,273.7993,3.119,52.44,60.33,33.89,35.75
"2017-02-13 13:00:00",275035,0.461,3.132,-4.211,72.39,64.98704,0,866.8265,0,113.1,2.066,191,1.091,1.722,174.5916,2.682,52.38,60.33,33.88,35.75
"2017-02-13 13:10:00",275036,0.832,13.44,-4.526,76.01,55.51911,0,866.8031,0,112.8,2.07,190,1.077,1.737,146.8652,2.643,52.44,60.33,33.89,35.75
"2017-02-13 13:20:00",275037,0.264,353.3,-4.678,79.81,61.34293,0,866.8516,0,113,2.068,170,1.066,1.741,171.8926,2.8,52.38,60.33,33.88,35.75
"2017-02-13 13:30:00",275038,0.345,0.426,-4.415,77.5,66.64168,0,866.9385,0,112.9,2.069,174,1.053,1.734,192.9364,2.893,52.44,60.33,33.89,35.75
"2017-02-13 13:40:00",275039,0.787,352.8,-4.787,78.5,56.60379,0,866.9886,0,112.8,2.07,187,1.034,1.75,156.9032,2.771,52.44,60.33,33.89,35.75
"2017-02-13 13:50:00",275040,1.142,321.7,-4.606,78.59,85.69775,0,867.0244,0,112.2,2.075,183,1.025,1.758,248.9862,2.883,52.44,60.33,33.89,35.75
"2017-02-13 14:00:00",275041,0.501,6.679,-4.647,78.32,90.37243,0,867.1066,0,112.5,2.073,178,1.025,1.755,261.4807,2.872,52.44,60.27,33.89,35.74
"2017-02-13 14:10:00",275042,0.835,344.3,-4.565,78.62,81.23532,0,867.1572,0,112.2,2.076,190,1.037,1.746,223.1818,2.751,52.38,60.33,33.88,35.75
"2017-02-13 14:20:00",275043,0.859,354.9,-4.966,71.45,72.05497,0,867.155,0,112.2,2.077,184,1.037,1.747,185.3189,2.607,52.44,60.33,33.89,35.75
"2017-02-13 14:30:00",275044,0.906,337.5,-5.042,70.24,43.81408,0,867.1234,0,112.2,2.077,193,1.032,1.748,116.1551,2.641,52.44,60.33,33.89,35.75
"2017-02-13 14:40:00",275045,1.268,331.7,-5.205,67.17,39.10005,0,867.1719,0,112.6,2.075,189,1.031,1.734,106.2762,2.722,52.38,60.33,33.88,35.75
"2017-02-13 14:50:00",275046,1.722,317,-5.709,71.46,28.94465,0,867.1993,0,112.8,2.074,193,1.066,1.731,74.18671,2.562,52.44,60.33,33.89,35.75
"2017-02-13 15:00:00",275047,0.894,337.2,-5.688,72.15,33.00996,0,867.2435,0,112.7,2.075,193,1.087,1.717,85.09295,2.573,52.38,60.33,33.88,35.75
"2017-02-13 15:10:00",275048,0.504,346.4,-5.482,71.79,49.1493,0,867.2457,0,112.8,2.072,192,1.089,1.716,132.2055,2.677,52.44,60.33,33.89,35.75
"2017-02-13 15:20:00",275049,0.634,346.4,-5.159,71.42,41.58887,0,867.3088,0,112.6,2.074,192,1.086,1.715,116.0303,2.778,52.38,60.33,33.88,35.75
"2017-02-13 15:30:00",275050,0.439,354.9,-5.325,71.24,29.72795,0,867.37,0,112.5,2.075,192,1.042,1.722,79.78444,2.663,52.44,60.33,33.89,35.75
"2017-02-13 15:40:00",275051,0.35,4.503,-5.149,70.96,33.30221,0,867.3544,0,112.5,2.074,192,1.038,1.725,89.22471,2.677,52.38,60.33,33.88,35.75
"2017-02-13 15:50:00",275052,0.808,351.4,-5.284,68.98,28.37691,0,867.5211,0,112.5,2.076,192,1.044,1.736,73.00996,2.571,52.38,60.33,33.88,35.75
"2017-02-13 16:00:00",275053,0.596,352,-5.39,70.52,37.63594,0,867.5543,0,112.4,2.076,191,1.066,1.757,97.44473,2.586,52.44,60.33,33.89,35.75
"2017-02-13 16:10:00",275054,0.61,4.755,-5.181,71.2,36.37582,0,867.5769,0,112.3,2.077,190,1.082,1.775,98.3946,2.71,52.38,60.33,33.88,35.75
"2017-02-13 16:20:00",275055,0.89,357.3,-5.651,72.85,16.62723,0,867.5876,0,112.3,2.079,192,1.09,1.795,40.0302,2.396,52.38,60.33,33.88,35.75
"2017-02-13 16:30:00",275056,0.165,10.79,-5.956,76.14,11.63321,0,867.6097,0,112.3,2.08,190,1.1,1.832,28.92511,2.5,52.38,60.33,33.88,35.75
"2017-02-13 16:40:00",275057,1.096,338.8,-6.188,78.02,11.01991,0,867.783,0,112.3,2.081,192,1.125,1.839,27.46195,2.474,52.38,60.33,33.88,35.75
"2017-02-13 16:50:00",275058,0.095,6.162,-6.151,79.25,10.63463,0,867.7203,0,112.2,2.082,192,1.141,1.834,26.54843,2.502,52.44,60.33,33.89,35.75
"2017-02-13 17:00:00",275059,0.397,349.6,-6.318,79.65,11.02801,0,867.6745,0,112.1,2.083,192,1.132,1.84,28.16406,2.551,52.44,60.33,33.89,35.75
"2017-02-13 17:10:00",275060,0.348,5.357,-6.362,78.34,8.109776,0,867.7209,0,112.2,2.083,192,1.095,1.866,23.71976,2.927,52.44,60.33,33.89,35.75
"2017-02-13 17:20:00",275061,0.364,342.6,-6.477,78.37,2.202462,0,867.799,0,112,2.085,192,1.072,1.86,6.32148,2.926,52.38,60.33,33.88,35.75
"2017-02-13 17:30:00",275062,0.346,343.7,-6.715,78.14,0.4247606,0,867.8411,0,112,2.086,192,1.089,1.831,2.320784,5.448,52.38,60.33,33.88,35.75
"2017-02-13 17:40:00",275063,0.522,346.1,-6.886,79.17,0,0,867.8327,0,112,2.087,192,1.11,1.805,0.64087,0,52.38,60.33,33.88,35.75
"2017-02-13 17:50:00",275064,0.208,348.1,-6.998,80.7,0,0,867.8158,0,112,2.087,193,1.111,1.801,0.00379213,0,52.38,60.33,33.88,35.75
"2017-02-13 18:00:00",275065,0.313,353.4,-7.132,81.9,0,0,867.8432,0,112,2.088,193,1.111,1.784,0,0,52.38,60.33,33.88,35.75
"2017-02-13 18:10:00",275066,0.165,353,-7.218,84.5,0,0,867.8432,0,111.7,2.091,174,1.111,1.795,0,0,52.44,60.33,33.89,35.75
"2017-02-13 18:20:00",275067,0.12,354.9,-7.301,87.9,0,0,867.8432,0,111.4,2.094,182,1.111,1.744,0,0,52.38,60.33,33.88,35.75
"2017-02-13 18:30:00",275068,0.18,353.6,-7.406,89.8,0,0,867.8453,0,111.5,2.094,192,1.098,1.722,0,0,52.44,60.33,33.89,35.75
"2017-02-13 18:40:00",275069,0.155,359.4,-7.441,90.8,0,0,867.9633,0,111.5,2.094,192,1.071,1.722,0,0,52.38,60.33,33.88,35.75
"2017-02-13 18:50:00",275070,0.296,350.9,-7.448,90.2,0,0,867.9681,0,111.6,2.093,183,1.066,1.743,0,0,52.38,60.33,33.88,35.75
"2017-02-13 19:00:00",275071,0.128,346.5,-7.493,90,0,0,867.9335,0,111.8,2.091,179,1.076,1.781,0,0,52.38,60.33,33.88,35.75
"2017-02-13 19:10:00",275072,0.314,346.1,-7.477,90.3,0,0,867.8897,0,111.5,2.094,184,1.085,1.804,0.1251663,0,52.38,60.33,33.88,35.75
"2017-02-13 19:20:00",275073,0.329,356.6,-7.456,90,0,0,867.9047,0,111.3,2.096,184,1.091,1.819,0.07965304,0,52.44,60.33,33.89,35.75
"2017-02-13 19:30:00",275074,0.172,346,-7.435,89.9,0,0,867.9207,0,111.3,2.096,171,1.105,1.818,0.08345266,0,52.38,60.33,33.88,35.75
"2017-02-13 19:40:00",275075,0.39,332.9,-7.42,89.6,0,0,867.9474,0,111.3,2.096,176,1.117,1.788,0.208635,0,52.38,60.33,33.88,35.75
"2017-02-13 19:50:00",275076,0.349,341.7,-7.488,90,0,0,867.9389,0,111.1,2.098,176,1.125,1.77,0.01138019,0,52.38,60.33,33.88,35.75
"2017-02-13 20:00:00",275077,0.39,337.8,-7.622,89.5,0.1377008,0,867.9626,0,111,2.1,188,1.136,1.77,0,0,52.38,60.33,33.88,35.75
"2017-02-13 20:10:00",275078,0.717,338.5,-7.783,89.3,0.1377009,0,868.1757,0,111,2.1,192,1.14,1.785,0,0,52.38,60.33,33.88,35.75
"2017-02-13 20:20:00",275079,0.223,9.38,-7.838,89.8,0,0,868.1884,0,111,2.101,192,1.099,1.797,0,0,52.38,60.33,33.88,35.75
"2017-02-13 20:30:00",275080,0.195,339.2,-7.952,88.7,0.003934314,0,868.1419,0,110.9,2.102,184,1.099,1.804,0,0,52.38,60.33,33.88,35.75
"2017-02-13 20:40:00",275081,0.207,356,-8.1,88.4,0.1731098,0,868.0576,0,110.8,2.104,185,1.097,1.805,0,0,52.44,60.33,33.89,35.75
"2017-02-13 20:50:00",275082,0.203,348,-8.47,87.7,0.1809784,0,867.95,0,111,2.104,184,1.104,1.805,0,0,52.44,60.27,33.89,35.74
"2017-02-13 21:00:00",275083,0.122,352.1,-8.66,87.7,0,0,867.9353,0,110.7,2.107,188,1.112,1.817,0,0,52.44,60.33,33.89,35.75
"2017-02-13 21:10:00",275084,0.15,11.74,-8.94,87.3,0,0,867.9353,0,110.7,2.109,184,1.113,1.845,0,0,52.38,60.27,33.88,35.74
"2017-02-13 21:20:00",275085,0.136,27.36,-9.39,88.6,0,0,867.9353,0,110.7,2.11,185,1.127,1.847,0,0,52.44,60.27,33.89,35.74
"2017-02-13 21:30:00",275086,0.157,2.316,-9.28,88.7,0,0,867.9353,0,110.5,2.111,189,1.152,1.847,0,0,52.38,60.33,33.88,35.75
"2017-02-13 21:40:00",275087,0.112,0.085,-9.28,87.4,0,0,867.9353,0,110.8,2.108,194,1.155,1.822,0,0,52.44,60.27,33.89,35.74
"2017-02-13 21:50:00",275088,0.071,3.829,-9.26,86,0,0,867.9384,0,110.6,2.112,188,1.157,1.78,0.01896726,0,52.44,60.27,33.89,35.74
"2017-02-13 22:00:00",275089,0.063,14.87,-9.97,87.8,0,0,867.9532,0,110.6,2.113,185,1.163,1.747,0,0,52.38,60.33,33.88,35.75
"2017-02-13 22:10:00",275090,0.267,339.9,-9.58,86.5,0,0,867.8682,0,110.6,2.11,180,1.156,1.755,0.1934929,0,52.44,60.33,33.89,35.75
"2017-02-13 22:20:00",275091,0.164,15.09,-9.75,84.4,0,0,867.7706,0,110.3,2.117,176,1.149,1.777,0.07208928,0,52.38,60.27,33.88,35.74
"2017-02-13 22:30:00",275092,0.227,355.4,-9.92,86.3,0,0,867.7682,0,109.9,2.118,180,1.113,1.798,0.07209782,0,52.38,60.33,33.88,35.75
"2017-02-13 22:40:00",275093,0.207,3.736,-9.8,84.3,0,0,867.7728,0,110.2,2.117,180,1.085,1.804,0.01138398,0,52.38,60.27,33.88,35.74
"2017-02-13 22:50:00",275094,0.178,31.73,-10.09,84.9,0,0,867.7466,0,110.5,2.114,176,1.113,1.808,0.007589432,0,52.38,60.33,33.88,35.75
"2017-02-13 23:00:00",275095,0.213,50.14,-9.98,84,0,0,867.5486,0,110.1,2.118,175,1.115,1.821,0.04933134,0,52.38,60.33,33.88,35.75
"2017-02-13 23:10:00",275096,0.217,25.28,-10.1,82.8,0,0,867.5402,0,110.5,2.115,185,1.115,1.836,0,0,52.44,60.33,33.89,35.75
"2017-02-13 23:20:00",275097,0.258,11.79,-9.73,81.3,0,0,867.5212,0,110.4,2.111,176,1.115,1.84,0.3111673,0,52.38,60.33,33.88,35.75
"2017-02-13 23:30:00",275098,0.013,21,-10.06,80.2,0,0,867.5233,0,110.5,2.117,192,1.117,1.847,0.08727863,0,52.38,60.33,33.88,35.75
"2017-02-13 23:40:00",275099,0.104,355.2,-9.68,79.66,0,0,867.5233,0,110.1,2.114,188,1.124,1.85,0.5578243,0,52.44,60.27,33.89,35.74
"2017-02-13 23:50:00",275100,0.111,356.2,-10.01,78.89,0,0,867.5107,0,110.1,2.118,185,1.15,1.85,0.04553668,0,52.44,60.33,33.89,35.75
